{"data":{"norad_id":60501,"intl_designator":"2024-149AK","name":"FLOCK 4BE-11","alt_names":[],"object_type":"PAYLOAD","status":"ACTIVE","operator":null,"country":"US","launch_date":"2024-08-16","launch_site_code":"AFWTR","launch_vehicle":null,"mission":null,"orbit_class":"UNKNOWN","rcs_meters":null,"size_class":null,"mass_kg":null,"dimensions":null,"purposes":["earth_obs"],"wikipedia_slug":null,"has_3d_model":false,"image_url":null,"decayed_at":null,"tle_current":{"epoch":"2026-05-24T23:01:36.059232Z","epoch_age_seconds":75658,"freshness":"FRESH","line1":"1 60501U 24149AK  26144.95944513  .00016330  00000+0  38345-3 0  9997","line2":"2 60501  97.3698 228.8586 0003242  24.3661 335.7739 15.42102309 98773","mean_motion":15.42102309,"eccentricity":0.0003242,"inclination_deg":97.3698,"raan_deg":228.8586,"arg_perigee_deg":24.3661,"mean_anomaly_deg":335.7739,"bstar":0.00038345,"rev_number":9877,"period_min":93.379018473411,"perigee_km":437.69528374738,"apogee_km":442.11610262964,"semimajor_km":6818.0426931885,"source":"CELESTRAK","updated_at":"2026-05-25T13:38:13.305365Z"}}}